Johnstown, PA

2:50 PM EDT on July 20, 2017 (GMT -0400)
Johnstown-Cambria County

Weather History for KJST - October, 2013

Change the Weather History Date:

Wednesday, October 2, 2013

  Actual Average Record
Temperature  
Mean Temperature 65 °F 54 °F  
Max Temperature 72 °F 63 °F 92 °F (1927)
Min Temperature 57 °F 45 °F 29 °F (1899)
Degree Days  
Heating Degree Days 0 12  
Month to date heating degree days 2 23  
Since 1 July heating degree days 290 241  
Cooling Degree Days 0 0  
Month to date cooling degree days 0 0  
Year to date cooling degree days 377 382  
Growing Degree Days 14 (Base 50)    
Moisture  
Dew Point 58 °F    
Average Humidity 83    
Maximum Humidity 100    
Minimum Humidity 66    
Precipitation  
Precipitation 0.00 in 0.11 in 2.90 in (1929)
Month to date precipitation 0.00 0.23  
Year to date precipitation 29.02 24.52  
Sea Level Pressure  
Sea Level Pressure 30.11 in    
Wind  
Wind Speed 7 mph (West)    
Max Wind Speed 16 mph    
Max Gust Speed 21 mph    
Visibility 10 miles    
Events      
T = Trace of Precipitation, MM = Missing Value Source: NWS Daily Summary

Daily Weather History Graph

Daily Weather History Graph

Search for Another Location

Airport or City:

Trip Planner

Search our weather history database for the weather conditions in past years. The results will help you decide how hot, cold, wet, or windy it might be!

Date:

Astronomy

Oct. 02, 2013 Rise Set
Actual Time 7:12 AM EDT 6:55 PM EDT
Civil Twilight 6:45 AM EDT 7:22 PM EDT
Nautical Twilight 6:14 AM EDT 7:54 PM EDT
Astronomical Twilight 5:42 AM EDT 8:25 PM EDT
Moon 4:43 AM EDT (10/2) 5:30 PM EDT (10/2)
Length of Visible Light 12h 36m
Length of Day
11h 42m
Waning Crescent, 6% of the Moon is Illuminated
Oct 2
Waning Crescent
Oct 4
New
Oct 11
First Quarter
Oct 18
Full
Oct 26
Last Quarter

Hourly Weather History & Observations

Time (EDT) Temp. Dew Point Humidity Pressure Visibility Wind Dir Wind Speed Gust Speed Precip Events Conditions
12:54 AM 57.9 °F 54.0 °F 87% 30.08 in 10.0 mi WSW 8.1 mph - N/A   Clear
1:54 AM 60.1 °F 55.0 °F 83% 30.08 in 10.0 mi WSW 6.9 mph - N/A   Scattered Clouds
2:54 AM 60.1 °F 55.0 °F 83% 30.07 in 10.0 mi WSW 6.9 mph - N/A   Partly Cloudy
3:54 AM 57.0 °F 54.0 °F 89% 30.08 in 10.0 mi WSW 5.8 mph - N/A   Partly Cloudy
4:54 AM 57.9 °F 55.0 °F 90% 30.07 in 10.0 mi WSW 6.9 mph - N/A   Partly Cloudy
5:54 AM 57.9 °F 55.0 °F 90% 30.08 in 10.0 mi West 6.9 mph - N/A   Partly Cloudy
6:54 AM 57.9 °F 55.9 °F 93% 30.10 in 10.0 mi WSW 8.1 mph - N/A   Partly Cloudy
7:54 AM 57.9 °F 57.0 °F 97% 30.11 in 10.0 mi WSW 5.8 mph - N/A   Scattered Clouds
8:54 AM 60.1 °F 57.0 °F 90% 30.12 in 10.0 mi SW 6.9 mph - N/A   Clear
9:54 AM 64.0 °F 59.0 °F 84% 30.12 in 10.0 mi West 8.1 mph - N/A   Partly Cloudy
10:54 AM 68.0 °F 60.1 °F 76% 30.12 in 10.0 mi West 9.2 mph - N/A   Partly Cloudy
11:22 AM 69.8 °F 60.8 °F 73% 30.14 in 10.0 mi West 10.4 mph 17.3 mph N/A   Mostly Cloudy
11:40 AM 68.0 °F 60.8 °F 78% 30.14 in 10.0 mi West 12.7 mph - N/A   Mostly Cloudy
11:54 AM 68.0 °F 60.1 °F 76% 30.12 in 10.0 mi WNW 12.7 mph 19.6 mph N/A   Mostly Cloudy
12:41 PM 69.8 °F 60.8 °F 73% 30.14 in 10.0 mi WNW 11.5 mph - N/A   Mostly Cloudy
12:54 PM 70.0 °F 62.1 °F 76% 30.12 in 10.0 mi WNW 9.2 mph - N/A   Overcast
1:23 PM 69.8 °F 60.8 °F 73% 30.14 in 10.0 mi West 12.7 mph - N/A   Scattered Clouds
1:54 PM 71.1 °F 61.0 °F 70% 30.10 in 10.0 mi West 11.5 mph 17.3 mph N/A   Scattered Clouds
2:54 PM 70.0 °F 57.9 °F 65% 30.10 in 10.0 mi West 12.7 mph - N/A   Partly Cloudy
3:54 PM 70.0 °F 57.9 °F 65% 30.09 in 10.0 mi WNW 8.1 mph - N/A   Scattered Clouds
4:54 PM 70.0 °F 57.9 °F 65% 30.09 in 10.0 mi West 6.9 mph - N/A   Partly Cloudy
5:54 PM 70.0 °F 57.9 °F 65% 30.09 in 10.0 mi West 9.2 mph - N/A   Clear
6:54 PM 66.9 °F 59.0 °F 76% 30.09 in 10.0 mi WSW 5.8 mph - N/A   Clear
7:54 PM 64.9 °F 57.9 °F 78% 30.10 in 10.0 mi WSW 4.6 mph - N/A   Clear
8:54 PM 63.0 °F 57.9 °F 84% 30.11 in 10.0 mi WSW 4.6 mph - N/A   Clear
9:54 PM 63.0 °F 57.9 °F 84% 30.11 in 10.0 mi SSW 5.8 mph - N/A   Clear
10:54 PM 63.0 °F 59.0 °F 87% 30.11 in 10.0 mi SSW 5.8 mph - N/A   Clear
11:54 PM 62.1 °F 57.9 °F 86% 30.12 in 9.0 mi WSW 4.6 mph - N/A   Mostly Cloudy